Cosmos 158 Rocket - Orbit

View from above orbital plane
View from above orbital plane
View from above satellite
View from above satellite

Ground track
Ground track

The orbit data is extracted from the following two-line orbital elements,

1 02802U 67045B   13141.25881354  .00000292  00000-0  93002-4 0  1791
2 02802 074.0145 055.2497 0066319 107.5809 253.2607 14.42912853414308
Epoch (UTC): 21 May 2013 06:12:41
Eccentricity: 0.0066319
inclination: 74.0145°
perigee height: 701 km
apogee height: 796 km
right ascension of ascending node: 55.2497°
argument of perigee: 107.5809°
revolutions per day: 14.42912853
mean anomaly at epoch: 253.2607°
orbit number at epoch: 41430

The dashed part of the orbit path shows where the satellite is in the earth's shadow,  

Developed and maintained by Chris Peat, Heavens-Above GmbH. Please read the updated FAQ before sending e-mail. Imprint. DLR